Volver al catálogo

SL-14 R/B

ActivoPO
NORAD 15475·ROCKET BODY·🇷🇺 Russia

Lanzado Jan 15, 1985 desde Plesetsk Cosmodrome

Loading…

Próximos Pases (próximas 24 horas)

TLE

ActualizadoSource: Space-Track

Época: Sep 14, 2026, 18:15 UTC

1 15475U 85003G   26257.76102699  .00000019  00000-0  54961-4 0  9999
2 15475  82.6149 184.9835 0037581   2.3724  23.9582 12.55180190908754

Sigue SL-14 R/B en tiempo real con AllMySat

Download on the App Store